STARLINK-1905, 46746

Orbit data source: Space-Track

STARLINK-1905, 46746 is a payload satellite owned by SpaceX/Seattle (US) in LEO that was launched on Sat, 24 Oct 2020 UTC via an FALCON 9 launch vehicle from the Air Force Eastern Test Range (AFETR). Payload-class satellites include a variety of spacecraft equipped with specific instruments for various scientific and technological missions. These include communications satellites like Starlink; space stations such as the ISS; scientific satellites like the Hubble; Earth observation satellites from companies like Planet Labs, Umbra, and HawkEye 360; GPS; miniature CubeSats for education and research; and military/defense satellites.

Loading next visibility...
Identifier
46746, 2020-074H
Orbit
LEO
Country
Flag of USUS
Related business
Manufacturer
SpaceX/Seattle
Mission
Partially operational Commercial Communications
Bus & Motor
STARLINK, Unknown motor
Mass
260 kg wet, ~248 kg dry
Launch date (UTC)
2020-10-24 (5 years ago)
Launch vehicle
FALCON 9
Launch site
Air Force Eastern Test Range (AFETR)
Object type
Payload
Rocket body
Debris
Shape & HBR
Box + 1 Pan, 10.1 m
Radar Cross Section
13.562 m², Large (>1 m²)

Expand to show TLE details & history
Last TLE update: 6 hours ago

TLE from 6 hours ago
0 STARLINK-1905
1 46746U 20074H   26073.00002315  .00100447  00000-0  10149-2 0  9992
2 46746  53.0447 262.5503 0001888 319.0256  48.3162 15.64555085  5739
Epoch: 2026-03-14T00:00Z
TLE epoch observation values (Epoch: 2026-03-14T00:00:02.000Z)
Latitude
5.82973°
Longitude
95.29517°
Altitude
374.002 km
Speed
7.687 km/s
True Right ascension
17h 47m 43s
True Declination
5° 47' 35"
Sunlit
Object was in daylight at epoch
Visualization orbit readout
Latitude
Unknown
Longitude
Unknown
Altitude
Unknown
Speed
Unknown
Apparent Right ascension
Unknown
Apparent Declination
Unknown
Sunlit
N/A
Visualization observer readout
Local Sidereal Time
10:48:30
Azimuth
Unknown
Elevation
Unknown
Doppler factor
Unknown
Orbital elements
Apogee altitude
376.073 km
Perigee altitude
373.523 km
Semi-major axis
6,752.935 km
Eccentricity
0.00019
Inclination
53.0447°
RAAN
262.5503°
Arg. of periapsis
319.0256°
True anomaly
48.33236°
Mean anomaly
48.3162°
Eccentric anomaly
48.32428°
Mean motion
3.91115 °/min
Orbital period
92.04 mins
BSTAR
0.0010149
Loading maneuver chart data...
Computing Atmospheric mass density...

Documentation

Showing up to 5 results
|